Meteo Giornale » Osservazioni meteo Grecia » Heraklion
ore: 03:50 - Osservazioni Meteo Heraklion
Lat. 35° 20' N Lon. 25° 11' E Alt. 37 metri s.l.m.
26 °C
Sereno
Temp. 24 Ore
25 °C
30 °C
Nord-Ovest
24 Km/h
Dew point 19 °C
Umidità 65 %
Visibilità 10 Km
Il sole sorge alle ore 06:51
Il sole tramonta alle ore 19:46
| Data e Ora | Cielo e Fenomeni | T °C | DP °C | Um. % | Pres. hPa | Vis. km | Vento km/h | |
|---|---|---|---|---|---|---|---|---|
| Oggi h: 03:50 | Sereno | 26 | 19 | 65 | 1012 | 10 | NO 24 | |
| Oggi h: 03:20 | Sereno | 26 | 18 | 61 | 1013 | 10 | O/NO 24 | |
| Oggi h: 02:50 | Sereno | 26 | 18 | 61 | 1013 | 10 | NO 22.2 | |
| Oggi h: 02:20 | Sereno | 26 | 18 | 61 | 1013 | 10 | NO 22.2 | |
| Oggi h: 01:50 | Sereno | 26 | 18 | 61 | 1013 | 10 | NO 16.7 | |
| Oggi h: 01:20 | Sereno | 26 | 18 | 61 | 1013 | 10 | NO 11.1 | |
| Oggi h: 00:50 | Sereno | 26 | 18 | 61 | 1013 | 10 | O/NO 16.7 | |
| Oggi h: 00:20 | Sereno | 27 | 18 | 57 | 1013 | 10 | O/NO 18.5 | |
| Ieri h: 23:50 | Sereno | 27 | 18 | 57 | 1014 | 10 | O/NO 13 | |
| Ieri h: 23:20 | Sereno | 27 | 18 | 57 | 1014 | 10 | O/NO 18.5 | |
| Ieri h: 22:50 | Sereno | 27 | 18 | 57 | 1014 | 10 | O/NO 18.5 | |
| Ieri h: 22:20 | Sereno | 27 | 17 | 54 | 1014 | 10 | O/NO 18.5 | |
| Ieri h: 21:50 | Sereno | 27 | 17 | 54 | 1013 | 10 | O/NO 18.5 | |
| Ieri h: 21:20 | Sereno | 28 | 17 | 51 | 1013 | 10 | NO 18.5 | |
| Ieri h: 20:50 | Sereno | 28 | 17 | 51 | 1013 | 10 | NO 18.5 | |
| Ieri h: 20:20 | Sereno | 28 | 17 | 51 | 1013 | 10 | NO 18.5 | |
| Ieri h: 19:50 | Sereno | 28 | 17 | 51 | 1013 | 10 | NO 22.2 | |
| Ieri h: 19:20 | Sereno | 28 | 18 | 54 | 1013 | 10 | NO 16.7 | |
| Ieri h: 18:50 | Sereno | 29 | 16 | 45 | 1013 | 10 | NO 25.9 | |
| Ieri h: 18:20 | Sereno | 29 | 17 | 48 | 1013 | 10 | O/NO 24 | |
| Ieri h: 17:50 | Sereno | 30 | 17 | 45 | 1013 | 10 | O/NO 22.2 | |
| Ieri h: 17:20 | Poco Nuvoloso | 29 | 19 | 54 | 1013 | 10 | O/NO 24 | |
| Ieri h: 16:50 | Poco Nuvoloso | 29 | 19 | 54 | 1013 | 10 | O/NO 24 | |
| Ieri h: 16:20 | Poco Nuvoloso | 29 | 19 | 54 | 1013 | 10 | O/NO 29.6 | |
| Ieri h: 15:50 | Poco Nuvoloso | 29 | 19 | 54 | 1013 | 10 | O/NO 31.5 | |
| Ieri h: 15:20 | Poco Nuvoloso | 29 | 19 | 54 | 1014 | 10 | O/NO 31.5 | |
| Ieri h: 14:50 | Poco Nuvoloso | 29 | 19 | 54 | 1014 | 10 | NO 29.6 | |
| Ieri h: 14:20 | Poco Nuvoloso | 30 | 19 | 51 | 1014 | 10 | O/NO 31.5 | |
| Ieri h: 13:50 | Poco Nuvoloso | 30 | 19 | 51 | 1014 | 10 | O/NO 29.6 | |
| Ieri h: 13:20 | Poco Nuvoloso | 30 | 19 | 51 | 1014 | 10 | O/NO 27.8 | |
| Ieri h: 12:50 | Poco Nuvoloso | 30 | 19 | 51 | 1015 | 10 | O/NO 31.5 | |
| Ieri h: 12:20 | Poco Nuvoloso | 29 | 19 | 54 | 1015 | 10 | O/NO 29.6 | |
| Ieri h: 11:50 | Poco Nuvoloso | 29 | 19 | 54 | 1015 | 10 | O/NO 29.6 | |
| Ieri h: 10:50 | Sereno | 29 | 19 | 54 | 1015 | 10 | O/NO 25.9 | |
| Ieri h: 10:20 | Sereno | 29 | 18 | 51 | 1015 | 10 | O/NO 25.9 | |
| Ieri h: 09:50 | Sereno | 28 | 19 | 58 | 1015 | 10 | O/NO 24 | |
| Ieri h: 09:20 | Sereno | 28 | 18 | 54 | 1015 | 10 | O/NO 24 | |
| Ieri h: 08:50 | Sereno | 28 | 19 | 58 | 1014 | 10 | O/NO 27.8 | |
| Ieri h: 08:20 | Sereno | 27 | 18 | 57 | 1014 | 10 | NO 27.8 | |
| Ieri h: 07:50 | Sereno | 27 | 19 | 61 | 1014 | 10 | O/NO 25.9 | |
| Ieri h: 07:20 | Sereno | 26 | 19 | 65 | 1014 | 10 | O/NO 27.8 | |
| Ieri h: 06:50 | Sereno | 26 | 19 | 65 | 1014 | 10 | O/NO 29.6 | |
| Ieri h: 06:20 | Sereno | 25 | 20 | 73 | 1014 | 10 | O/NO 25.9 | |
| Ieri h: 05:50 | Sereno | 26 | 20 | 69 | 1014 | 10 | O/NO 16.7 | |
| Ieri h: 05:20 | Sereno | 26 | 20 | 69 | 1015 | 10 | O/NO 16.7 | |
| Ieri h: 04:50 | Sereno | 26 | 20 | 69 | 1015 | 10 | O/NO 16.7 | |



